Погода в Ламерде

Иран     27°42′20″N   52°39′54″E
темп.,
°C
ветер,
м/с
пор.,
м/с
влажн.,
%
обл.,
%
осадки,
мм/ч
давл.,
гПа
погр.,
м
24 мая, вт
вт2401:30+29сз33160 0.0 100213
04:30+27ссз22210 0.0 100211
07:30+29сз23160 0.0 100463
10:30+37сз4680 0.0 1004596
13:30+40сз7970 0.0 10033236
16:30+40зсз8970 0.0 10023513
19:30+35сз71190 0.0 1004288
22:30+31сз58100 0.0 100695
25 мая, ср
ср2501:30+28сз45120 0.0 100652
04:30+26сз57160 0.0 100795
07:30+27сз48140 0.0 1008212
10:30+35ссз61240 0.0 10081070
13:30+39сз111850 0.0 10062891
16:30+39сз131860 0.0 10053076
19:30+35сз101590 0.0 1006508
22:30+30сз611120 0.0 1007153
26 мая, чт
чт2601:30+28сз58140 0.0 1007100
04:30+26сз57160 0.0 100780
07:30+27сз411120 0.0 1008281
10:30+35ссз71450 0.0 10071120
13:30+39сз101650 0.0 10062506
16:30+40сз121460 0.0 10043484
19:30+35сз91380 0.0 1005331
22:30+31сз612120 0.0 1006172
27 мая, пт
пт2701:30+28сз58140 0.0 1005101
04:30+27сз58150 0.0 100591
07:30+29сз48120 0.0 1006162
10:30+37сз61070 0.0 10061118
13:30+41сз101360 0.0 10043774
16:30+41сз111150 0.0 10024655
19:30+36зсз81280 0.0 1003311
22:30+31сз611100 0.0 1005138
28 мая, сб
сб2801:30+30сз59110 0.0 1004108
04:30+28сз56110 0.0 100460
07:30+30ссз35100 0.0 1005103
10:30+37ссз3770 0.0 1005756
13:30+42сз91150 0.0 10034498
16:30+42зсз91140 0.0 10014977
19:30+36зсз81390 0.0 1003307
22:30+32сз814110 0.0 1005220